| time (UTC) | temp C | wind direction | speed KPH | gust KPH | rain 1hr cm | rain 24hr cm | rain mn cm | humidity % | barometer mb |
| 20260510204004 | 15 | 331 | 0.0 | 4.8 | 0.00 | 0.00 | 0.00 | 29 | 1017.0 |
| 20260510203504 | 15 | 229 | 0.0 | 6.4 | 0.00 | 0.00 | 0.00 | 30 | 1017.1 |
| 20260510203005 | 15 | 316 | 0.0 | 6.4 | 0.00 | 0.00 | 0.00 | 30 | 1017.1 |
| 20260510202504 | 15 | 216 | 0.0 | 6.4 | 0.00 | 0.00 | 0.00 | 29 | 1017.3 |
| 20260510202004 | 16 | 300 | 0.0 | 3.2 | 0.00 | 0.00 | 0.00 | 30 | 1017.2 |
| 20260510201505 | 16 | 165 | 0.0 | 11.3 | 0.00 | 0.00 | 0.00 | 28 | 1017.2 |
| 20260510201004 | 16 | 244 | 0.0 | 11.3 | 0.00 | 0.00 | 0.00 | 30 | 1017.3 |
| 20260510200005 | 15 | 298 | 0.0 | 17.7 | 0.00 | 0.00 | 0.00 | 29 | 1017.5 |
| 20260510195505 | 15 | 280 | 0.0 | 3.2 | 0.00 | 0.10 | 0.00 | 29 | 1017.5 |
| 20260510195004 | 15 | 295 | 0.0 | 6.4 | 0.00 | 0.10 | 0.00 | 30 | 1017.5 |
| 20260510194504 | 15 | 233 | 0.0 | 6.4 | 0.00 | 0.10 | 0.00 | 27 | 1017.6 |
| 20260510194004 | 15 | 211 | 0.0 | 3.2 | 0.00 | 0.10 | 0.00 | 28 | 1017.5 |
| 20260510193504 | 16 | 340 | 0.0 | 3.2 | 0.00 | 0.10 | 0.00 | 27 | 1017.7 |
| 20260510193005 | 16 | 355 | 0.0 | 6.4 | 0.00 | 0.10 | 0.00 | 28 | 1017.5 |
| 20260510192505 | 16 | 235 | 0.0 | 12.9 | 0.00 | 0.10 | 0.00 | 30 | 1017.4 |
| 20260510192004 | 16 | 231 | 0.0 | 6.4 | 0.00 | 0.10 | 0.00 | 30 | 1017.5 |
| 20260510191505 | 16 | 335 | 0.0 | 6.4 | 0.00 | 0.10 | 0.00 | 31 | 1017.5 |
| 20260510191004 | 16 | 40 | 0.0 | 6.4 | 0.00 | 0.10 | 0.00 | 30 | 1017.7 |
| 20260510190504 | 15 | 322 | 1.6 | 14.5 | 0.00 | 0.10 | 0.00 | 30 | 1017.7 |
| 20260510190006 | 15 | 346 | 1.6 | 14.5 | 0.00 | 0.10 | 0.00 | 31 | 1017.6 |
| 20260510185504 | 15 | 300 | 0.0 | 11.3 | 0.00 | 0.10 | 0.00 | 30 | 1017.5 |
| 20260510185004 | 15 | 278 | 0.0 | 6.4 | 0.00 | 0.10 | 0.00 | 31 | 1017.6 |
| 20260510184504 | 15 | 290 | 0.0 | 6.4 | 0.00 | 0.10 | 0.00 | 29 | 1017.5 |
| 20260510184005 | 15 | 346 | 0.0 | 4.8 | 0.00 | 0.10 | 0.00 | 30 | 1017.6 |
| 20260510183504 | 15 | 243 | 0.0 | 9.7 | 0.00 | 0.10 | 0.00 | 30 | 1017.6 |
| 20260510183005 | 15 | 360 | 0.0 | 8.0 | 0.00 | 0.10 | 0.00 | 29 | 1017.5 |
| 20260510182504 | 15 | 334 | 0.0 | 4.8 | 0.00 | 0.10 | 0.00 | 30 | 1017.4 |
| 20260510181505 | 15 | 295 | 0.0 | 11.3 | 0.00 | 0.10 | 0.00 | 29 | 1017.4 |
| 20260510180504 | 15 | 250 | 0.0 | 12.9 | 0.00 | 0.10 | 0.00 | 29 | 1017.4 |
| 20260510180005 | 15 | 31 | 0.0 | 3.2 | 0.00 | 0.10 | 0.00 | 29 | 1017.3 |
| 20260510175504 | 15 | 350 | 0.0 | 0.0 | 0.00 | 0.10 | 0.00 | 30 | 1017.2 |
| 20260510174504 | 15 | 281 | 0.0 | 8.0 | 0.00 | 0.10 | 0.00 | 29 | 1017.5 |
| 20260510174000 | 15 | 244 | 0.0 | 6.4 | 0.00 | 0.10 | 0.00 | 30 | 1017.4 |
| 20260510173500 | 15 | 258 | 0.0 | 11.3 | 0.00 | 0.10 | 0.00 | 29 | 1017.3 |
| 20260510172505 | 15 | 275 | 1.6 | 12.9 | 0.00 | 0.10 | 0.00 | 30 | 1017.4 |
| 20260510172000 | 15 | 205 | 0.0 | 16.1 | 0.00 | 0.10 | 0.00 | 30 | 1017.4 |
| 20260510171504 | 15 | 269 | 0.0 | 16.1 | 0.00 | 0.10 | 0.00 | 30 | 1017.4 |
| 20260510171004 | 15 | 273 | 0.0 | 4.8 | 0.00 | 0.10 | 0.00 | 31 | 1017.5 |
| 20260510170500 | 14 | 279 | 0.0 | 8.0 | 0.00 | 0.10 | 0.00 | 31 | 1017.5 |
| 20260510170005 | 14 | 293 | 0.0 | 8.0 | 0.00 | 0.10 | 0.00 | 32 | 1017.5 |
| 20260510165005 | 14 | 309 | 0.0 | 1.6 | 0.00 | 0.10 | 0.00 | 31 | 1017.5 |
| 20260510164504 | 13 | 280 | 0.0 | 1.6 | 0.00 | 0.10 | 0.00 | 31 | 1017.5 |
| 20260510164004 | 13 | 308 | 0.0 | 1.6 | 0.00 | 0.10 | 0.00 | 31 | 1017.5 |
| 20260510163005 | 13 | 323 | 0.0 | 4.8 | 0.00 | 0.10 | 0.00 | 30 | 1017.6 |
| 20260510162505 | 13 | 292 | 0.0 | 3.2 | 0.00 | 0.10 | 0.00 | 30 | 1017.5 |
| 20260510162005 | 13 | 295 | 0.0 | 16.1 | 0.00 | 0.10 | 0.00 | 33 | 1017.5 |
| 20260510161505 | 13 | 49 | 0.0 | 1.6 | 0.00 | 0.10 | 0.00 | 34 | 1017.4 |
| 20260510161005 | 13 | 11 | 0.0 | 1.6 | 0.00 | 0.10 | 0.00 | 32 | 1017.3 |
| 20260510160505 | 13 | 345 | 0.0 | 1.6 | 0.00 | 0.10 | 0.00 | 31 | 1017.4 |
| 20260510160005 | 13 | 5 | 0.0 | 0.0 | 0.00 | 0.10 | 0.00 | 33 | 1017.3 |
| 20260510155504 | 13 | 292 | 0.0 | 3.2 | 0.00 | 0.10 | 0.00 | 31 | 1017.2 |
| 20260510155005 | 13 | 340 | 0.0 | 4.8 | 0.00 | 0.10 | 0.00 | 33 | 1017.1 |
| 20260510154505 | 13 | 164 | 0.0 | 4.8 | 0.00 | 0.10 | 0.00 | 34 | 1017.1 |
| 20260510154004 | 13 | 301 | 0.0 | 16.1 | 0.00 | 0.10 | 0.00 | 33 | 1017.1 |
| 20260510153503 | 13 | 314 | 0.0 | 16.1 | 0.00 | 0.10 | 0.00 | 33 | 1017.1 |
| 20260510153004 | 13 | 24 | 0.0 | 1.6 | 0.00 | 0.10 | 0.00 | 33 | 1017.0 |
| 20260510152003 | 13 | 327 | 0.0 | 4.8 | 0.00 | 0.10 | 0.00 | 35 | 1016.8 |
| 20260510151504 | 13 | 246 | 0.0 | 6.4 | 0.00 | 0.10 | 0.00 | 34 | 1016.8 |
| 20260510151004 | 13 | 310 | 0.0 | 8.0 | 0.00 | 0.10 | 0.00 | 36 | 1016.8 |
| 20260510150005 | 13 | 18 | 0.0 | 1.6 | 0.00 | 0.10 | 0.00 | 38 | 1016.6 |
| 20260510145504 | 13 | 21 | 0.0 | 1.6 | 0.00 | 0.10 | 0.00 | 38 | 1016.7 |
| 20260510145005 | 13 | 257 | 0.0 | 1.6 | 0.00 | 0.10 | 0.00 | 37 | 1016.6 |
| 20260510144505 | 13 | 331 | 0.0 | 1.6 | 0.00 | 0.10 | 0.00 | 36 | 1016.5 |
| 20260510144004 | 13 | 292 | 0.0 | 3.2 | 0.00 | 0.10 | 0.00 | 37 | 1016.6 |
| 20260510143459 | 12 | 315 | 0.0 | 3.2 | 0.00 | 0.10 | 0.00 | 39 | 1016.5 |
| 20260510143004 | 12 | 292 | 0.0 | 1.6 | 0.00 | 0.10 | 0.00 | 37 | 1016.5 |
| 20260510142500 | 12 | 221 | 0.0 | 1.6 | 0.00 | 0.10 | 0.00 | 38 | 1016.5 |
| 20260510142000 | 12 | 329 | 0.0 | 1.6 | 0.00 | 0.10 | 0.00 | 38 | 1016.4 |
| 20260510141504 | 12 | 26 | 0.0 | 4.8 | 0.00 | 0.10 | 0.00 | 39 | 1016.4 |
| 20260510141000 | 12 | 238 | 0.0 | 4.8 | 0.00 | 0.10 | 0.00 | 41 | 1016.5 |
| 20260510140005 | 12 | 207 | 0.0 | 6.4 | 0.00 | 0.10 | 0.00 | 42 | 1016.4 |
| 20260510135505 | 11 | 38 | 0.0 | 0.0 | 0.00 | 0.10 | 0.00 | 42 | 1016.4 |
| 20260510135004 | 11 | 11 | 0.0 | 0.0 | 0.00 | 0.10 | 0.00 | 44 | 1016.4 |
| 20260510134505 | 11 | 360 | 0.0 | 0.0 | 0.00 | 0.10 | 0.00 | 44 | 1016.4 |
| 20260510134004 | 11 | 321 | 0.0 | 0.0 | 0.00 | 0.10 | 0.00 | 44 | 1016.4 |
| 20260510133005 | 10 | 290 | 0.0 | 0.0 | 0.00 | 0.10 | 0.00 | 47 | 1016.4 |
| 20260510132504 | 9 | 5 | 0.0 | 0.0 | 0.00 | 0.10 | 0.00 | 48 | 1016.3 |
| 20260510132004 | 9 | 335 | 0.0 | 0.0 | 0.00 | 0.10 | 0.00 | 49 | 1016.2 |
| 20260510131005 | 8 | 311 | 0.0 | 0.0 | 0.00 | 0.10 | 0.00 | 48 | 1016.1 |
| 20260510125504 | 8 | 307 | 0.0 | 0.0 | 0.00 | 0.10 | 0.00 | 51 | 1016.0 |
| 20260510124504 | 8 | 32 | 0.0 | 0.0 | 0.00 | 0.10 | 0.00 | 53 | 1015.9 |
| 20260510124000 | 8 | 32 | 0.0 | 0.0 | 0.00 | 0.10 | 0.00 | 54 | 1015.8 |
| 20260510123459 | 7 | 19 | 0.0 | 0.0 | 0.00 | 0.10 | 0.00 | 54 | 1015.9 |
| 20260510122504 | 7 | 9 | 0.0 | 0.0 | 0.00 | 0.10 | 0.00 | 56 | 1015.8 |
| 20260510122005 | 7 | 34 | 0.0 | 0.0 | 0.00 | 0.10 | 0.00 | 57 | 1015.7 |
| 20260510121004 | 7 | 22 | 0.0 | 1.6 | 0.00 | 0.10 | 0.00 | 59 | 1015.7 |
| 20260510120504 | 7 | 28 | 0.0 | 4.8 | 0.00 | 0.10 | 0.00 | 60 | 1015.6 |
| 20260510120005 | 6 | 335 | 0.0 | 4.8 | 0.00 | 0.10 | 0.00 | 61 | 1015.4 |
| 20260510115504 | 6 | 348 | 0.0 | 0.0 | 0.00 | 0.10 | 0.00 | 61 | 1015.4 |
| 20260510115000 | 6 | 325 | 0.0 | 0.0 | 0.00 | 0.10 | 0.00 | 62 | 1015.3 |
| 20260510114505 | 6 | 19 | 0.0 | 0.0 | 0.00 | 0.10 | 0.00 | 63 | 1015.2 |
| 20260510114000 | 6 | 25 | 0.0 | 0.0 | 0.00 | 0.10 | 0.00 | 64 | 1015.1 |
| 20260510113500 | 6 | 20 | 0.0 | 0.0 | 0.00 | 0.10 | 0.00 | 65 | 1015.0 |
| 20260510113005 | 6 | 24 | 0.0 | 1.6 | 0.00 | 0.10 | 0.00 | 66 | 1015.0 |
| 20260510112500 | 5 | 19 | 0.0 | 1.6 | 0.00 | 0.10 | 0.00 | 66 | 1014.9 |
| 20260510112004 | 5 | 333 | 0.0 | 1.6 | 0.00 | 0.10 | 0.00 | 67 | 1014.8 |
| 20260510111504 | 5 | 319 | 0.0 | 1.6 | 0.00 | 0.10 | 0.00 | 68 | 1014.7 |
| 20260510110505 | 5 | 318 | 0.0 | 0.0 | 0.00 | 0.10 | 0.00 | 69 | 1014.7 |
| 20260510110005 | 5 | 5 | 0.0 | 0.0 | 0.00 | 0.10 | 0.00 | 69 | 1014.7 |
| 20260510105500 | 5 | 300 | 0.0 | 0.0 | 0.00 | 0.10 | 0.00 | 70 | 1014.6 |
| 20260510104505 | 5 | 300 | 0.0 | 0.0 | 0.00 | 0.10 | 0.00 | 70 | 1014.5 |
| 20260510104000 | 5 | 300 | 0.0 | 0.0 | 0.00 | 0.10 | 0.00 | 69 | 1014.3 |
| 20260510102459 | 5 | 19 | 0.0 | 0.0 | 0.00 | 0.10 | 0.00 | 69 | 1014.2 |
| 20260510101504 | 5 | 19 | 0.0 | 0.0 | 0.00 | 0.10 | 0.00 | 69 | 1014.1 |
| 20260510101004 | 5 | 19 | 0.0 | 0.0 | 0.00 | 0.10 | 0.00 | 68 | 1014.0 |
| 20260510100004 | 6 | 19 | 0.0 | 0.0 | 0.00 | 0.10 | 0.00 | 68 | 1013.9 |
| 20260510095504 | 6 | 19 | 0.0 | 0.0 | 0.00 | 0.10 | 0.00 | 67 | 1013.9 |
| 20260510095000 | 6 | 19 | 0.0 | 0.0 | 0.00 | 0.10 | 0.00 | 67 | 1013.7 |
| 20260510094505 | 6 | 19 | 0.0 | 0.0 | 0.00 | 0.10 | 0.00 | 66 | 1013.7 |
| 20260510093959 | 6 | 19 | 0.0 | 0.0 | 0.00 | 0.10 | 0.00 | 67 | 1013.7 |
| 20260510093504 | 6 | 19 | 0.0 | 0.0 | 0.00 | 0.10 | 0.00 | 67 | 1013.7 |
| 20260510092500 | 6 | 19 | 0.0 | 0.0 | 0.00 | 0.10 | 0.00 | 68 | 1013.6 |
| 20260510092000 | 6 | 19 | 0.0 | 0.0 | 0.00 | 0.10 | 0.00 | 68 | 1013.5 |
| 20260510091004 | 6 | 19 | 0.0 | 0.0 | 0.00 | 0.10 | 0.00 | 69 | 1013.4 |
| 20260510090504 | 6 | 19 | 0.0 | 0.0 | 0.00 | 0.10 | 0.00 | 69 | 1013.2 |
| 20260510090002 | 6 | 19 | 0.0 | 0.0 | 0.00 | 0.10 | 0.00 | 69 | 1013.1 |
| 20260510085504 | 6 | 19 | 0.0 | 0.0 | 0.00 | 0.10 | 0.00 | 68 | 1013.0 |
| 20260510084504 | 7 | 19 | 0.0 | 0.0 | 0.00 | 0.10 | 0.00 | 67 | 1012.7 |
| 20260510084000 | 7 | 19 | 0.0 | 0.0 | 0.00 | 0.10 | 0.00 | 67 | 1012.6 |
| 20260510083004 | 7 | 19 | 0.0 | 0.0 | 0.00 | 0.10 | 0.00 | 65 | 1012.4 |
| 20260510082504 | 7 | 19 | 0.0 | 0.0 | 0.00 | 0.10 | 0.00 | 65 | 1012.3 |
| 20260510081504 | 7 | 19 | 0.0 | 0.0 | 0.00 | 0.10 | 0.00 | 64 | 1012.1 |
| 20260510081005 | 7 | 19 | 0.0 | 0.0 | 0.00 | 0.10 | 0.00 | 64 | 1012.0 |
| 20260510080504 | 7 | 19 | 0.0 | 0.0 | 0.00 | 0.10 | 0.00 | 63 | 1011.9 |
| 20260510080005 | 8 | 19 | 0.0 | 0.0 | 0.00 | 0.10 | 0.00 | 63 | 1011.8 |
| 20260510075500 | 8 | 19 | 0.0 | 0.0 | 0.00 | 0.10 | 0.00 | 62 | 1011.6 |
| 20260510075004 | 8 | 19 | 0.0 | 0.0 | 0.00 | 0.10 | 0.00 | 61 | 1011.5 |
| 20260510074504 | 8 | 19 | 0.0 | 0.0 | 0.00 | 0.10 | 0.00 | 60 | 1011.4 |
| 20260510073959 | 8 | 21 | 0.0 | 0.0 | 0.00 | 0.10 | 0.00 | 59 | 1011.3 |
| 20260510073500 | 8 | 21 | 0.0 | 0.0 | 0.00 | 0.10 | 0.00 | 58 | 1011.2 |
| 20260510073006 | 8 | 21 | 0.0 | 0.0 | 0.00 | 0.10 | 0.00 | 58 | 1011.2 |
| 20260510071500 | 9 | 344 | 0.0 | 1.6 | 0.00 | 0.10 | 0.00 | 54 | 1010.8 |
| 20260510071003 | 9 | 15 | 0.0 | 6.4 | 0.00 | 0.10 | 0.00 | 55 | 1010.7 |
| 20260510070500 | 9 | 13 | 0.0 | 8.0 | 0.00 | 0.10 | 0.00 | 55 | 1010.7 |
| 20260510070005 | 9 | 11 | 0.0 | 8.0 | 0.00 | 0.10 | 0.00 | 56 | 1010.6 |
| 20260510065500 | 9 | 355 | 0.0 | 0.0 | 0.00 | 0.10 | 0.00 | 56 | 1010.6 |
| 20260510065000 | 10 | 333 | 0.0 | 0.0 | 0.00 | 0.10 | 0.00 | 56 | 1010.5 |
| 20260510064504 | 10 | 316 | 0.0 | 0.0 | 0.00 | 0.10 | 0.00 | 55 | 1010.4 |
| 20260510063500 | 10 | 24 | 0.0 | 0.0 | 0.00 | 0.10 | 0.00 | 55 | 1010.4 |
| 20260510063004 | 10 | 355 | 0.0 | 1.6 | 0.00 | 0.10 | 0.00 | 55 | 1010.3 |
| 20260510062000 | 10 | 15 | 0.0 | 0.0 | 0.00 | 0.10 | 0.00 | 57 | 1010.3 |
| 20260510061500 | 10 | 15 | 0.0 | 0.0 | 0.00 | 0.10 | 0.00 | 57 | 1010.3 |
| 20260510061004 | 10 | 15 | 0.0 | 0.0 | 0.00 | 0.10 | 0.00 | 58 | 1010.1 |
| 20260510060500 | 10 | 17 | 0.0 | 0.0 | 0.00 | 0.10 | 0.00 | 57 | 1010.1 |
| 20260510060004 | 10 | 17 | 0.0 | 0.0 | 0.00 | 0.10 | 0.00 | 57 | 1010.1 |
| 20260510054959 | 10 | 17 | 0.0 | 0.0 | 0.00 | 0.10 | 0.00 | 58 | 1009.9 |
| 20260510053459 | 11 | 17 | 0.0 | 0.0 | 0.00 | 0.10 | 0.00 | 56 | 1009.7 |
| 20260510053000 | 11 | 17 | 0.0 | 0.0 | 0.00 | 0.10 | 0.00 | 56 | 1009.6 |
| 20260510052458 | 11 | 15 | 0.0 | 0.0 | 0.00 | 0.10 | 0.00 | 57 | 1009.5 |
| 20260510051958 | 11 | 19 | 0.0 | 0.0 | 0.00 | 0.10 | 0.00 | 57 | 1009.4 |
| 20260510051500 | 11 | 19 | 0.0 | 0.0 | 0.00 | 0.10 | 0.00 | 56 | 1009.4 |
| 20260510050959 | 11 | 19 | 0.0 | 1.6 | 0.00 | 0.10 | 0.00 | 57 | 1009.3 |
| 20260510050459 | 11 | 19 | 0.0 | 6.4 | 0.00 | 0.10 | 0.00 | 56 | 1009.1 |
| 20260510050006 | 11 | 19 | 0.0 | 4.8 | 0.00 | 0.10 | 0.00 | 56 | 1009.0 |
| 20260510045505 | 11 | 19 | 0.0 | 0.0 | 0.00 | 0.10 | 0.00 | 56 | 1009.0 |
| 20260510045005 | 11 | 19 | 0.0 | 0.0 | 0.00 | 0.10 | 0.00 | 56 | 1008.9 |
| 20260510044005 | 12 | 19 | 0.0 | 0.0 | 0.00 | 0.10 | 0.00 | 56 | 1008.6 |
| 20260510043504 | 12 | 19 | 0.0 | 0.0 | 0.00 | 0.10 | 0.00 | 55 | 1008.6 |
| 20260510043005 | 12 | 17 | 0.0 | 3.2 | 0.00 | 0.10 | 0.00 | 55 | 1008.4 |
| 20260510042505 | 12 | 355 | 0.0 | 3.2 | 0.00 | 0.10 | 0.00 | 55 | 1008.4 |
| 20260510042005 | 12 | 22 | 0.0 | 1.6 | 0.00 | 0.10 | 0.00 | 55 | 1008.4 |
| 20260510041505 | 12 | 355 | 0.0 | 1.6 | 0.00 | 0.10 | 0.00 | 55 | 1008.5 |
| 20260510041004 | 12 | 40 | 0.0 | 3.2 | 0.00 | 0.10 | 0.00 | 54 | 1008.4 |
| 20260510040505 | 13 | 10 | 0.0 | 3.2 | 0.00 | 0.10 | 0.00 | 53 | 1008.2 |
| 20260510040005 | 13 | 36 | 0.0 | 4.8 | 0.00 | 0.10 | 0.10 | 53 | 1008.2 |
| 20260510035504 | 13 | 24 | 0.0 | 3.2 | 0.00 | 0.10 | 0.10 | 51 | 1008.0 |
| 20260510035004 | 13 | 23 | 0.0 | 1.6 | 0.00 | 0.10 | 0.10 | 49 | 1007.9 |
| 20260510034505 | 13 | 30 | 0.0 | 0.0 | 0.00 | 0.10 | 0.10 | 48 | 1007.8 |
| 20260510034005 | 14 | 30 | 0.0 | 0.0 | 0.00 | 0.10 | 0.10 | 47 | 1007.8 |
| 20260510033505 | 14 | 330 | 0.0 | 0.0 | 0.00 | 0.10 | 0.10 | 47 | 1007.6 |
| 20260510033006 | 14 | 348 | 0.0 | 0.0 | 0.00 | 0.10 | 0.10 | 47 | 1007.5 |
| 20260510031505 | 14 | 10 | 0.0 | 1.6 | 0.00 | 0.10 | 0.10 | 45 | 1007.3 |
| 20260510031005 | 15 | 331 | 0.0 | 1.6 | 0.00 | 0.10 | 0.10 | 45 | 1007.2 |
| 20260510030505 | 15 | 355 | 0.0 | 1.6 | 0.00 | 0.10 | 0.10 | 45 | 1007.1 |
| 20260510025505 | 15 | 5 | 0.0 | 0.0 | 0.00 | 0.10 | 0.10 | 44 | 1007.0 |
| 20260510025005 | 15 | 272 | 0.0 | 6.4 | 0.00 | 0.10 | 0.10 | 44 | 1006.9 |
| 20260510024504 | 15 | 5 | 0.0 | 6.4 | 0.00 | 0.10 | 0.10 | 44 | 1007.0 |
| 20260510024005 | 15 | 360 | 0.0 | 4.8 | 0.00 | 0.10 | 0.10 | 44 | 1006.9 |
| 20260510023505 | 15 | 5 | 0.0 | 4.8 | 0.00 | 0.10 | 0.10 | 43 | 1006.8 |
| 20260510023005 | 15 | 28 | 0.0 | 12.9 | 0.00 | 0.10 | 0.10 | 44 | 1006.7 |
| 20260510022505 | 16 | 5 | 0.0 | 12.9 | 0.00 | 0.10 | 0.10 | 43 | 1006.5 |
| 20260510022005 | 16 | 21 | 1.6 | 14.5 | 0.00 | 0.10 | 0.10 | 43 | 1006.2 |
| 20260510021505 | 16 | 324 | 1.6 | 14.5 | 0.00 | 0.10 | 0.10 | 45 | 1006.2 |
| 20260510021005 | 16 | 310 | 0.0 | 3.2 | 0.00 | 0.10 | 0.10 | 46 | 1005.8 |
| 20260510020505 | 16 | 325 | 0.0 | 6.4 | 0.00 | 0.10 | 0.10 | 46 | 1005.6 |
| 20260510020006 | 16 | 342 | 0.0 | 6.4 | 0.00 | 0.10 | 0.10 | 48 | 1005.5 |
| 20260510015505 | 16 | 13 | 0.0 | 0.0 | 0.00 | 0.10 | 0.10 | 49 | 1005.4 |
| 20260510014505 | 16 | 306 | 0.0 | 0.0 | 0.00 | 0.10 | 0.10 | 49 | 1005.0 |
| 20260510014005 | 16 | 306 | 0.0 | 0.0 | 0.00 | 0.10 | 0.10 | 48 | 1004.9 |
| 20260510013504 | 16 | 306 | 0.0 | 0.0 | 0.00 | 0.10 | 0.10 | 47 | 1004.7 |
| 20260510013005 | 16 | 306 | 0.0 | 0.0 | 0.00 | 0.10 | 0.10 | 47 | 1004.6 |
| 20260510012005 | 16 | 340 | 0.0 | 0.0 | 0.00 | 0.10 | 0.10 | 47 | 1004.3 |
| 20260510011506 | 16 | 339 | 0.0 | 0.0 | 0.00 | 0.10 | 0.10 | 46 | 1004.2 |
| 20260510011005 | 17 | 259 | 0.0 | 0.0 | 0.00 | 0.10 | 0.10 | 46 | 1004.1 |
| 20260510010505 | 17 | 207 | 0.0 | 0.0 | 0.00 | 0.10 | 0.10 | 45 | 1004.0 |
| 20260510010006 | 17 | 207 | 0.0 | 0.0 | 0.00 | 0.10 | 0.10 | 44 | 1004.0 |
| 20260510005505 | 17 | 213 | 0.0 | 0.0 | 0.00 | 0.10 | 0.10 | 43 | 1003.9 |
| 20260510005005 | 17 | 213 | 0.0 | 0.0 | 0.00 | 0.10 | 0.10 | 43 | 1003.8 |
| 20260510004005 | 17 | 213 | 0.0 | 4.8 | 0.00 | 0.10 | 0.10 | 42 | 1003.6 |
| 20260510003005 | 18 | 211 | 0.0 | 6.4 | 0.00 | 0.10 | 0.10 | 41 | 1003.5 |
| 20260510002504 | 18 | 223 | 0.0 | 6.4 | 0.00 | 0.10 | 0.10 | 40 | 1003.3 |
| 20260510002004 | 18 | 234 | 0.0 | 0.0 | 0.00 | 0.10 | 0.10 | 41 | 1003.3 |
| 20260510001505 | 18 | 220 | 0.0 | 1.6 | 0.00 | 0.10 | 0.10 | 40 | 1003.2 |
| 20260510001004 | 18 | 286 | 0.0 | 1.6 | 0.00 | 0.10 | 0.10 | 39 | 1003.2 |
| 20260510000006 | 18 | 286 | 0.0 | 0.0 | 0.00 | 0.10 | 0.10 | 39 | 1003.1 |
| 20260509235505 | 18 | 288 | 0.0 | 20.9 | 0.00 | 0.10 | 0.10 | 39 | 1003.1 |
| 20260509235005 | 18 | 244 | 0.0 | 20.9 | 0.00 | 0.10 | 0.10 | 38 | 1003.0 |
| 20260509234505 | 18 | 275 | 0.0 | 16.1 | 0.00 | 0.10 | 0.10 | 38 | 1002.9 |
| 20260509234004 | 19 | 231 | 0.0 | 16.1 | 0.00 | 0.10 | 0.10 | 38 | 1002.9 |
| 20260509233505 | 19 | 289 | 0.0 | 3.2 | 0.00 | 0.10 | 0.10 | 37 | 1002.8 |
| 20260509233006 | 19 | 238 | 0.0 | 3.2 | 0.00 | 0.10 | 0.10 | 37 | 1002.8 |
| 20260509232504 | 19 | 245 | 0.0 | 4.8 | 0.00 | 0.10 | 0.10 | 37 | 1002.8 |
| 20260509232004 | 19 | 267 | 0.0 | 4.8 | 0.00 | 0.10 | 0.10 | 36 | 1002.8 |
| 20260509231505 | 19 | 213 | 0.0 | 12.9 | 0.00 | 0.10 | 0.10 | 37 | 1002.7 |
| 20260509231004 | 19 | 262 | 0.0 | 12.9 | 0.00 | 0.10 | 0.10 | 36 | 1002.7 |
| 20260509230006 | 20 | 319 | 3.2 | 20.9 | 0.00 | 0.10 | 0.10 | 35 | 1002.8 |
| 20260509225504 | 20 | 302 | 3.2 | 20.9 | 0.00 | 0.10 | 0.10 | 34 | 1002.7 |
| 20260509225004 | 20 | 296 | 3.2 | 22.5 | 0.00 | 0.10 | 0.10 | 34 | 1002.6 |
| 20260509224505 | 20 | 230 | 3.2 | 24.1 | 0.00 | 0.10 | 0.10 | 34 | 1002.5 |
| 20260509224005 | 20 | 321 | 4.8 | 24.1 | 0.00 | 0.10 | 0.10 | 34 | 1002.4 |
| 20260509223504 | 20 | 276 | 3.2 | 24.1 | 0.00 | 0.10 | 0.10 | 33 | 1002.2 |
| 20260509223005 | 20 | 299 | 4.8 | 29.0 | 0.00 | 0.10 | 0.10 | 34 | 1002.1 |
| 20260509222505 | 20 | 223 | 4.8 | 29.0 | 0.00 | 0.10 | 0.10 | 34 | 1002.0 |
| 20260509222004 | 20 | 273 | 6.4 | 35.4 | 0.00 | 0.10 | 0.10 | 34 | 1001.8 |
| 20260509221505 | 20 | 257 | 8.0 | 35.4 | 0.00 | 0.10 | 0.10 | 34 | 1001.9 |
| 20260509221004 | 20 | 246 | 11.3 | 30.6 | 0.00 | 0.10 | 0.10 | 34 | 1001.6 |
| 20260509220504 | 20 | 250 | 8.0 | 38.6 | 0.00 | 0.10 | 0.10 | 34 | 1001.6 |
| 20260509220005 | 20 | 254 | 3.2 | 30.6 | 0.00 | 0.10 | 0.10 | 34 | 1001.5 |
| 20260509215505 | 20 | 238 | 3.2 | 19.3 | 0.00 | 0.10 | 0.10 | 35 | 1001.5 |
| 20260509215004 | 20 | 290 | 4.8 | 27.4 | 0.00 | 0.10 | 0.10 | 35 | 1001.3 |
| 20260509214505 | 20 | 238 | 3.2 | 27.4 | 0.00 | 0.10 | 0.10 | 35 | 1001.5 |
| 20260509214004 | 20 | 291 | 4.8 | 27.4 | 0.00 | 0.10 | 0.10 | 36 | 1001.4 |
| 20260509213504 | 20 | 290 | 6.4 | 27.4 | 0.00 | 0.10 | 0.10 | 35 | 1001.3 |
| 20260509213006 | 20 | 245 | 6.4 | 30.6 | 0.00 | 0.10 | 0.10 | 35 | 1001.2 |
| 20260509212505 | 20 | 196 | 4.8 | 30.6 | 0.00 | 0.10 | 0.10 | 36 | 1001.2 |
| 20260509212005 | 20 | 313 | 4.8 | 25.7 | 0.00 | 0.10 | 0.10 | 36 | 1001.3 |
| 20260509211505 | 20 | 257 | 3.2 | 22.5 | 0.00 | 0.10 | 0.10 | 37 | 1001.2 |
| 20260509211005 | 20 | 275 | 1.6 | 14.5 | 0.00 | 0.10 | 0.10 | 37 | 1001.5 |
| 20260509210505 | 20 | 251 | 0.0 | 9.7 | 0.00 | 0.10 | 0.10 | 36 | 1001.5 |
| 20260509210005 | 20 | 290 | 0.0 | 9.7 | 0.00 | 0.10 | 0.10 | 39 | 1001.5 |